Aeroporto :
LOGIN :

Iscrizione | Disclaimer

   EN    FR    IT 

 










Sommario :    VFR   VFR Marginale   IFR   IFR Intensivo   IFR Molto Intensivo
Visibilità : 
Base nubi : 
>= 8 km
>= 3000ft
5 / 8 km
1000 / 3000 ft
1500m / 5 km
500 / 1000 ft
800 / 1500m
200 / 500 ft
< 800m
< 200 ft
Simboli :   Temporali  Nebbia  Neve Forte  Precipitazioni Forti  Vento > 20 kt
SIGMETs :   Varie  Temporali  Ghiacco  Turbolenza  Onda orograficha  Ceneri Vulcaniche






- Altitudine del aeroporto : 1249 ft


ETSN - Neuburg AB

ULTIMO METAR :
  • 190220Z 27004KT 9999 FEW130 SCT360 18/15 Q1013 BLU+

METARs OBSOLETI :
  • 190120Z 23002KT 9999 16/14 Q1013 BLU+
  • 190020Z 20002KT 9999 17/15 Q1012 BLU+
  • 182320Z 35002KT 9999 19/16 Q1012 BLU+
  • 182220Z 31001KT 9999 SCT240 21/16 Q1012 BLU+

Previsioni scadute.



MetMap, La meteo Aeronautica in un colpo d'occhio ! - Copyright ORBIFLY Dicembre 2007 - Disclaimer

ORBIFLY MET'MAP TEAM :

Programmazione e sviluppo : Alexandra Zaïnal
Concezione : Baudouin d'Aumeries
Supporto tecnico e logistico : Manuel Goepfert
Aiuto : Marc-Olivier Méhu
Aiuto per la traduzione : Arnaldo La Scala




FONTI E CREDITI :

   NOAA